Storm Lake, IA

12:45 PM CST on November 21, 2017 (GMT -0600)
Storm Lake Municipal

Weather History for KSLB - November, 2011

Change the Weather History Date:

Friday, November 11, 2011

  Actual Average Record
Temperature  
Mean Temperature 40 °F -  
Max Temperature 57 °F 46 °F 73 °F (2005)
Min Temperature 24 °F 29 °F 10 °F (2013)
Degree Days  
Heating Degree Days 24    
Moisture  
Dew Point 19 °F    
Average Humidity 49    
Maximum Humidity 75    
Minimum Humidity 24    
Precipitation  
Precipitation 0.00 in - - ()
Sea Level Pressure  
Sea Level Pressure 29.74 in    
Wind  
Wind Speed 10 mph (SW)    
Max Wind Speed 17 mph    
Max Gust Speed 21 mph    
Visibility 10 miles    
Events      
Averages and records for this station are not official NWS values.
T = Trace of Precipitation, MM = Missing Value Source: NWS Daily Summary

Daily Weather History Graph

Daily Weather History Graph

Search for Another Location

Airport or City:

Trip Planner

Search our weather history database for the weather conditions in past years. The results will help you decide how hot, cold, wet, or windy it might be!

Date:

Astronomy

Nov. 11, 2011 Rise Set
Actual Time 7:07 AM CST 5:02 PM CST
Civil Twilight 6:36 AM CST 5:32 PM CST
Nautical Twilight 6:03 AM CST 6:06 PM CST
Astronomical Twilight 5:29 AM CST 6:39 PM CST
Moon 5:29 PM CST (11/11) 7:58 AM CST (11/11)
Length of Visible Light 10h 55m
Length of Day
9h 55m
Full, 99% of the Moon is Illuminated
Nov 11
Full
Nov 18
Last Quarter
Nov 25
New
Dec 2
First Quarter
Dec 10
Full

Hourly Weather History & Observations

Time (CST) Temp. Windchill Dew Point Humidity Pressure Visibility Wind Dir Wind Speed Gust Speed Precip Events Conditions
12:15 AM 27.0 °F 18.7 °F 11.3 °F 52% 29.96 in 10.0 mi SSE 8.1 mph - N/A   Clear
12:35 AM 27.1 °F 18.2 °F 11.3 °F 51% 29.96 in 10.0 mi SSE 9.2 mph - N/A   Clear
12:55 AM 26.8 °F 17.1 °F 11.8 °F 53% 29.94 in 10.0 mi South 10.4 mph - N/A   Clear
1:15 AM 27.7 °F 18.2 °F 12.6 °F 53% 29.93 in 10.0 mi South 10.4 mph - N/A   Clear
1:35 AM 28.4 °F 18.5 °F 13.1 °F 53% 29.91 in 10.0 mi South 11.5 mph - N/A   Clear
1:55 AM 28.8 °F 19.5 °F 13.6 °F 53% 29.90 in 10.0 mi South 10.4 mph - N/A   Clear
2:15 AM 28.4 °F 19.1 °F 14.2 °F 55% 29.88 in 10.0 mi SSE 10.4 mph - N/A   Clear
2:35 AM 28.2 °F 19.5 °F 14.7 °F 57% 29.87 in 10.0 mi SE 9.2 mph - N/A   Clear
2:55 AM 27.7 °F 18.2 °F 15.1 °F 59% 29.86 in 10.0 mi SSE 10.4 mph - N/A   Clear
3:15 AM 28.2 °F 17.7 °F 15.8 °F 60% 29.84 in 10.0 mi SSE 12.7 mph - N/A   Clear
3:35 AM 27.3 °F 17.7 °F 15.8 °F 62% 29.83 in 10.0 mi South 10.4 mph - N/A   Clear
3:55 AM 25.7 °F 15.7 °F 15.6 °F 66% 29.82 in 10.0 mi SSE 10.4 mph - N/A   Clear
4:35 AM 24.6 °F 14.4 °F 15.8 °F 69% 29.79 in 10.0 mi South 10.4 mph - N/A   Clear
4:55 AM 25.0 °F 14.2 °F 16.7 °F 71% 29.79 in 10.0 mi South 11.5 mph - N/A   Clear
5:15 AM 25.3 °F 16.0 °F 17.1 °F 71% 29.78 in 10.0 mi SSE 9.2 mph - N/A   Clear
5:35 AM 25.5 °F 15.5 °F 17.4 °F 71% 29.77 in 10.0 mi SSE 10.4 mph - N/A   Clear
5:55 AM 24.8 °F 14.6 °F 17.1 °F 72% 29.77 in 10.0 mi SSE 10.4 mph - N/A   Clear
6:15 AM 24.8 °F 13.4 °F 17.4 °F 74% 29.75 in 10.0 mi South 12.7 mph - N/A   Clear
6:35 AM 25.3 °F 15.3 °F 17.8 °F 73% 29.75 in 10.0 mi South 10.4 mph - N/A   Clear
6:55 AM 25.0 °F 14.8 °F 17.8 °F 74% 29.76 in 10.0 mi South 10.4 mph - N/A   Clear
7:15 AM 25.2 °F 15.1 °F 18.0 °F 74% 29.76 in 10.0 mi South 10.4 mph - N/A   Clear
7:35 AM 25.3 °F 16.0 °F 18.3 °F 75% 29.76 in 10.0 mi South 9.2 mph - N/A   Clear
7:55 AM 26.8 °F 17.7 °F 19.4 °F 74% 29.75 in 10.0 mi South 9.2 mph - N/A   Clear
8:15 AM 28.2 °F 19.5 °F 20.3 °F 72% 29.74 in 10.0 mi South 9.2 mph - N/A   Clear
9:15 AM 33.1 °F 23.0 °F 23.0 °F 66% 29.72 in 10.0 mi SSW 15.0 mph - N/A   Clear
9:35 AM 34.7 °F 25.5 °F 23.7 °F 64% 29.72 in 10.0 mi SSW 13.8 mph - N/A   Clear
9:55 AM 36.5 °F 28.7 °F 24.3 °F 61% 29.72 in 10.0 mi SW 11.5 mph - N/A   Clear
10:15 AM 37.9 °F 29.6 °F 24.6 °F 59% 29.72 in 10.0 mi WSW 13.8 mph - N/A   Clear
10:35 AM 39.6 °F 31.3 °F 24.8 °F 56% 29.72 in 10.0 mi WSW 15.0 mph - N/A   Clear
10:55 AM 41.0 °F 33.1 °F 24.6 °F 52% 29.72 in 10.0 mi WSW 15.0 mph 18.4 mph N/A   Clear
11:15 AM 43.2 °F 35.6 °F 24.8 °F 48% 29.72 in 10.0 mi WSW 16.1 mph - N/A   Clear
11:35 AM 45.5 °F 38.6 °F 24.3 °F 43% 29.71 in 10.0 mi West 16.1 mph - N/A   Clear
11:55 AM 46.8 °F - 24.1 °F 41% 29.70 in 10.0 mi West 15.0 mph - N/A   Clear
12:35 PM 50.7 °F - 23.0 °F 34% 29.69 in 10.0 mi West 15.0 mph - N/A   Clear
12:55 PM 52.7 °F - 22.8 °F 31% 29.69 in 10.0 mi West 17.3 mph - N/A   Clear
1:15 PM 53.8 °F - 22.5 °F 30% 29.68 in 10.0 mi West 16.1 mph - N/A   Clear
1:35 PM 54.5 °F - 22.5 °F 29% 29.68 in 10.0 mi WSW 13.8 mph - N/A   Clear
1:55 PM 55.6 °F - 22.1 °F 27% 29.67 in 10.0 mi West 13.8 mph - N/A   Clear
2:15 PM 55.9 °F - 22.3 °F 27% 29.67 in 10.0 mi West 12.7 mph 18.4 mph N/A   Clear
2:35 PM 56.5 °F - 21.9 °F 26% 29.67 in 10.0 mi West 13.8 mph - N/A   Clear
2:55 PM 57.0 °F - 21.6 °F 25% 29.67 in 10.0 mi WSW 16.1 mph - N/A   Clear
3:15 PM 57.2 °F - 21.2 °F 25% 29.67 in 10.0 mi WSW 16.1 mph 20.7 mph N/A   Clear
3:35 PM 57.2 °F - 21.0 °F 25% 29.68 in 10.0 mi WSW 15.0 mph - N/A   Clear
3:55 PM 57.2 °F - 20.7 °F 24% 29.68 in 10.0 mi West 12.7 mph - N/A   Clear
4:15 PM 56.5 °F - 20.8 °F 25% 29.68 in 10.0 mi West 10.4 mph - N/A   Clear
4:35 PM 55.0 °F - 21.0 °F 27% 29.68 in 10.0 mi West 10.4 mph - N/A   Clear
4:55 PM 52.7 °F - 20.8 °F 29% 29.68 in 10.0 mi WSW 9.2 mph - N/A   Clear
5:15 PM 49.1 °F - 20.3 °F 32% 29.68 in 10.0 mi West 8.1 mph - N/A   Clear
5:35 PM 46.8 °F - 20.1 °F 35% 29.68 in 10.0 mi West 8.1 mph - N/A   Clear
5:55 PM 44.8 °F 39.9 °F 19.6 °F 37% 29.68 in 10.0 mi West 9.2 mph - N/A   Clear
6:15 PM 46.4 °F 41.9 °F 19.9 °F 35% 29.68 in 10.0 mi West 9.2 mph - N/A   Clear
6:35 PM 45.9 °F 42.9 °F 19.8 °F 35% 29.68 in 10.0 mi WSW 5.8 mph - N/A   Clear
6:55 PM 44.2 °F 40.3 °F 19.4 °F 37% 29.68 in 10.0 mi WSW 6.9 mph - N/A   Clear
7:15 PM 44.2 °F 41.0 °F 19.4 °F 37% 29.67 in 10.0 mi SW 5.8 mph - N/A   Clear
7:35 PM 42.4 °F 38.1 °F 19.0 °F 39% 29.67 in 10.0 mi SW 6.9 mph - N/A   Clear
7:55 PM 39.9 °F 35.1 °F 18.7 °F 42% 29.67 in 10.0 mi SW 6.9 mph - N/A   Clear
8:15 PM 39.2 °F 35.9 °F 18.5 °F 43% 29.67 in 10.0 mi SW 4.6 mph - N/A   Clear
8:35 PM 39.2 °F 34.2 °F 18.5 °F 43% 29.68 in 10.0 mi SW 6.9 mph - N/A   Clear
8:55 PM 39.7 °F 35.6 °F 18.5 °F 42% 29.69 in 10.0 mi SW 5.8 mph - N/A   Clear
9:15 PM 39.7 °F 35.6 °F 19.0 °F 43% 29.69 in 10.0 mi SW 5.8 mph - N/A   Clear
9:35 PM 38.8 °F 34.6 °F 19.9 °F 47% 29.68 in 10.0 mi SW 5.8 mph - N/A   Clear
9:55 PM 39.0 °F 34.8 °F 20.5 °F 47% 29.68 in 10.0 mi SW 5.8 mph - N/A   Clear
10:15 PM 39.6 °F 34.7 °F 21.0 °F 48% 29.67 in 10.0 mi SW 6.9 mph - N/A   Clear
10:35 PM 38.8 °F 34.6 °F 21.2 °F 49% 29.66 in 10.0 mi SW 5.8 mph - N/A   Clear
10:55 PM 39.6 °F 35.4 °F 21.7 °F 49% 29.65 in 10.0 mi SW 5.8 mph - N/A   Clear
11:15 PM 39.7 °F 35.6 °F 21.7 °F 49% 29.66 in 10.0 mi SW 5.8 mph - N/A   Clear
11:35 PM 39.2 °F 34.2 °F 22.1 °F 50% 29.66 in 10.0 mi SW 6.9 mph - N/A   Clear
11:55 PM 38.5 °F 34.1 °F 21.9 °F 51% 29.65 in 10.0 mi SSW 5.8 mph - N/A   Clear